Flag for Greenland Weather past 2 weeks in Qaanaaq, Greenland

Now
-15 °F

Clear.


Feels Like: -31 °F
Forecast: -19 / -12 °F
Wind: 7 mph from East

Location: Thule A. B.

Current Time: Dec 29, 2014 at 1:47:31 AM

Latest Report: Dec 29, 2014 at 12:58 AM


Visibility: N/A

Pressure: 29.20 "Hg

Humidity: 52%

Dew point: -27 °F

Location of QaanaaqLocation

Historic Weather in Qaanaaq — Graph

°F

Qaanaaq temperature yesterday

Maximum temperature yesterday: -13 °F (at 5:58 PM)
Minimum temperature yesterday: -20 °F (at 12:58 AM)
Average temperature yesterday: -16 °F

Past Weeks' High & Low Weather Summary

 TemperatureHumidityPressure
High3 °F (Dec 13, 11:58 PM)84% (Dec 24, 8:58 AM)30.35 "Hg (Dec 24, 8:58 AM)
Low-24 °F (Dec 27, 11:58 AM)52% (Dec 15, 6:58 PM)29.21 "Hg (Dec 28, 11:58 PM)
Average-12 °F69%29.80 "Hg
* Reported Dec 13 11:58 PM — Dec 28 11:58 PM, Qaanaaq, Weather by CustomWeather, © 2014

Note: Actual official high and low records may vary slightly from our data, if they occured in-between our weather recording intervals... More about our weather records

Advertising

Qaanaaq weather history for previous 24 hours

 ConditionsComfort  
Time TempWeatherWind HumidityBarometerVisibility
11:58 PM
Dec 28
-17 °FClear.14 mph63%29.21 "HgN/A
10:58 PM-13 °FClear.10 mph57%29.23 "HgN/A
9:58 PM-13 °FClear.8 mph52%29.26 "HgN/A
8:58 PM-15 °FSunny.13 mph52%29.27 "HgN/A
7:58 PM-17 °FSunny.9 mph57%29.29 "HgN/A
6:58 PM-17 °FSunny.10 mph57%29.30 "HgN/A
5:58 PM-13 °FSunny.8 mph57%29.31 "HgN/A
4:58 PM-17 °FSunny.9 mph63%29.34 "HgN/A
3:58 PM-15 °FSunny.6 mph57%29.36 "HgN/A
2:58 PM-17 °FSunny.13 mph63%29.36 "HgN/A
1:58 PM-18 °FSunny.15 mph56%29.39 "HgN/A
12:58 PM-15 °FSunny.13 mph57%29.42 "HgN/A
11:58 AM-20 °FSunny.12 mph62%29.43 "HgN/A
10:58 AM-15 °FSunny.7 mph57%29.46 "HgN/A
9:58 AM-15 °FSunny.No wind52%29.48 "HgN/A
8:58 AM-18 °FSunny.7 mph62%29.50 "HgN/A
7:58 AM-18 °FClear.8 mph62%29.52 "HgN/A
6:58 AM-15 °FClear.8 mph57%29.55 "HgN/A
5:58 AM-18 °FClear.12 mph62%29.57 "HgN/A
4:58 AM-15 °FClear.10 mph57%29.58 "HgN/A
3:58 AM-18 °FClear.12 mph56%29.60 "HgN/A
2:58 AM-17 °FSunny.8 mph57%29.62 "HgN/A
1:58 AM-17 °FClear.8 mph63%29.63 "HgN/A
Weather by CustomWeather, © 2014

See weather overviewHow to use our weather pages